Temperature
33 33 32 32 33 33 33 33 33 34 34 34 33 32 32 32 32 31 30 29 28 27 26 25 24 23 22 22 21 21 20 20 20 20 20 20 20 20 20 20 20 20 19 19
33 32 33 34 34 34 33 33 33 34 35 34 33 32 33 32 32 31 30 29 28 27 26 25 24 24 23 22 21 21 21 20 20 20 20 20 20 20 20 20 20 19 19 19
32 33 34 34 33 33 33 33 33 33 34 33 32 30 31 32 32 31 31 30 29 28 26 25 24 24 23 22 21 21 21 20 20 20 20 20 20 20 20 20 20 19 19 19
33 34 34 33 33 33 33 34 34 33 32 32 32 29 30 31 31 32 31 30 29 28 27 25 25 24 23 23 22 21 21 21 20 20 20 20 20 20 20 20 20 20 19 19
33 34 33 33 34 34 34 35 34 33 32 31 32 31 30 31 31 32 32 31 30 29 27 26 25 24 24 23 22 21 21 21 20 20 20 20 20 20 20 20 20 20 20 19
34 35 34 34 35 35 34 34 33 32 31 30 32 31 30 31 31 32 32 31 30 29 28 27 26 25 24 23 23 22 21 21 20 20 20 20 20 20 20 20 20 20 20 19
33 34 35 35 34 34 34 33 31 30 29 30 32 31 30 31 32 32 32 31 30 29 28 27 26 25 24 24 23 22 21 21 20 20 20 20 20 20 20 20 20 20 20 20
32 32 34 34 34 33 33 33 30 29 30 31 31 30 30 32 32 33 32 31 30 30 29 27 26 25 24 24 23 22 21 21 21 20 20 20 20 20 19 19 19 19 19 19
32 32 34 35 35 34 33 32 33 32 31 30 30 30 30 32 32 33 32 31 31 30 29 27 26 25 25 24 23 22 21 21 20 20 20 20 20 19 19 19 19 19 19 19
32 31 33 34 34 34 34 33 32 31 30 29 30 29 29 30 31 32 32 31 30 29 28 27 27 26 25 24 23 22 21 21 20 20 20 20 20 19 19 19 19 19 19 19
33 31 32 33 33 33 33 33 32 31 31 29 28 29 31 30 31 31 31 30 29 29 28 28 27 26 25 24 23 22 21 21 20 20 20 20 19 19 19 19 19 19 19 19
33 31 31 32 34 34 34 33 32 31 30 30 29 29 32 32 31 31 30 29 29 29 28 27 26 25 25 24 23 22 21 21 20 20 20 20 19 19 19 19 19 18 18 18
31 30 29 30 32 32 33 33 33 32 31 30 29 29 32 31 30 30 29 29 29 28 28 27 26 25 24 24 23 22 22 21 20 20 20 19 19 19 19 19 18 18 18 18
30 30 30 29 30 30 31 32 33 32 31 30 30 29 30 30 30 30 29 29 28 28 27 26 25 24 24 23 23 22 21 21 20 20 19 19 19 19 18 18 18 18 18 18
31 30 30 30 31 31 31 32 32 32 31 30 30 30 30 29 29 29 28 28 27 27 26 26 25 24 23 23 22 22 21 21 20 20 19 19 19 18 18 18 18 18 18 18
30 29 29 29 30 30 31 31 32 32 31 31 31 30 30 29 28 27 27 27 26 26 25 25 24 23 23 22 22 21 21 20 20 19 19 19 19 18 18 18 18 18 18 18
29 28 28 28 29 29 29 31 31 31 31 31 30 30 30 28 28 27 27 27 26 25 25 24 23 23 22 22 21 21 20 20 20 19 19 19 18 18 18 18 17 18 18 18
28 27 27 27 27 27 29 32 32 31 31 31 30 30 30 29 27 27 26 26 25 25 24 23 23 22 22 21 21 21 20 20 19 19 18 18 18 18 18 17 17 18 18 17
29 27 27 27 27 28 29 30 31 30 30 30 30 29 29 28 27 26 25 25 24 24 23 23 22 22 21 21 20 20 20 19 19 19 18 18 18 18 17 17 17 17 17 17
28 27 26 26 26 26 28 30 30 30 28 29 29 28 27 27 26 25 24 24 23 23 23 22 22 21 21 20 20 20 19 19 19 19 18 18 18 18 17 17 17 17 17 17
26 26 26 26 26 27 28 29 29 27 26 27 27 27 26 25 25 24 23 23 23 22 22 21 21 20 20 20 20 19 19 19 19 18 18 18 18 18 17 17 17 17 17 17
26 26 25 26 25 25 27 27 26 25 26 26 26 25 25 24 24 23 22 22 22 22 21 21 20 20 20 20 19 19 19 18 18 18 18 17 17 17 17 17 17 17 16 16
26 26 26 25 25 25 25 25 25 25 25 25 25 24 24 23 23 22 21 21 21 21 20 20 20 20 19 19 19 19 18 18 18 18 17 17 17 16 16 16 16 16 16 16
25 26 25 24 24 24 25 24 24 24 24 24 23 23 23 22 22 21 21 20 20 20 20 19 19 19 18 18 18 18 18 18 18 17 17 16 16 16 16 16 16 16 16 16
24 25 24 23 23 24 23 23 23 23 23 23 22 22 22 22 21 21 20 20 19 19 19 18 18 18 18 17 17 17 17 17 17 16 16 16 16 16 16 16 16 16 16 15
24 23 23 22 22 22 22 22 22 22 22 22 22 21 21 21 20 20 19 19 18 18 18 17 17 17 17 17 17 17 17 17 16 16 16 15 15 15 15 15 15 15 15 15
Wind_Speed
11 10 6 5 5 6 6 4 4 2 3 4 3 4 6 8 8 9 9 11 11 11 12 11 9 10 10 9 8 6 5 4 3 2 1 2 2 2 2 3 4 3 3 2
10 9 7 7 7 8 8 6 5 3 3 2 2 2 4 5 7 9 9 9 11 11 11 10 9 10 10 9 8 7 5 5 4 3 2 2 2 1 2 3 3 3 2 2
12 7 7 9 8 8 9 7 6 4 4 4 1 2 4 5 6 8 9 10 11 12 13 12 11 10 10 10 9 7 6 6 4 3 3 2 2 1 1 3 3 2 2 2
11 10 10 10 8 9 9 7 6 7 6 6 4 4 5 7 7 9 10 10 10 11 12 13 12 11 11 11 10 8 7 6 4 3 2 3 3 2 2 2 2 2 2 2
12 11 12 11 10 9 8 8 8 8 8 10 8 4 4 8 7 8 10 11 11 12 13 13 12 11 11 11 10 9 8 6 5 4 3 2 1 1 1 1 3 2 3 2
13 11 10 9 9 9 9 10 9 8 8 10 7 5 3 5 6 7 9 10 11 11 12 13 13 11 10 10 10 10 9 7 5 4 3 2 2 1 1 1 2 2 2 2
14 14 11 8 10 9 9 9 6 6 7 7 4 3 1 5 5 6 8 9 10 10 11 12 13 12 10 10 9 10 10 8 6 5 4 3 2 2 2 2 3 2 1 1
12 11 11 10 9 9 9 9 7 8 7 4 1 0 1 2 5 6 8 9 9 11 11 11 11 11 10 10 9 9 10 8 7 6 4 3 3 3 3 3 2 2 1 1
8 7 6 8 9 10 9 9 9 10 10 7 2 3 3 4 4 6 7 9 9 9 10 11 11 11 11 10 9 9 9 8 7 6 5 4 4 3 2 2 2 2 1 1
8 8 8 7 8 11 10 9 7 7 6 7 4 2 3 5 4 5 6 5 6 8 9 10 11 11 10 9 9 8 9 7 6 5 5 5 4 3 2 2 1 1 1 2
10 10 9 9 10 10 9 9 7 7 6 6 6 1 4 5 5 5 6 6 5 4 7 8 8 8 8 8 9 9 8 7 6 6 5 3 4 3 3 2 1 1 1 1
8 9 10 11 9 9 10 10 8 7 6 6 6 3 2 4 5 5 6 7 6 6 6 8 8 7 7 7 7 7 7 7 6 6 5 4 4 3 3 3 2 2 2 2
4 6 8 9 9 8 10 10 10 9 8 7 7 3 3 5 4 5 5 6 6 6 6 7 7 6 6 6 5 7 6 6 7 6 5 4 4 3 3 2 2 2 2 3
4 9 10 10 6 6 9 11 10 10 8 7 5 5 3 3 3 3 5 5 5 5 5 6 7 6 5 5 5 4 4 4 4 4 5 4 3 3 2 2 2 2 2 2
7 11 11 11 11 11 12 12 10 10 9 8 5 5 3 3 2 4 5 4 4 3 3 4 5 5 6 6 5 4 3 3 3 3 4 4 4 3 2 2 2 1 1 2
8 9 10 11 12 14 15 14 12 11 8 8 7 3 3 3 3 4 3 3 4 3 2 3 4 5 5 5 5 4 3 3 2 3 3 3 3 3 2 2 2 2 2 2
8 8 10 11 12 14 15 13 11 9 8 8 6 3 2 3 3 3 1 1 2 2 1 2 2 2 4 4 4 5 4 3 3 2 2 3 3 3 3 3 2 2 2 2
9 8 7 10 11 14 8 6 7 7 5 4 2 2 1 2 4 3 2 2 2 1 1 1 0 0 3 4 4 3 3 3 3 3 2 2 3 3 3 3 3 3 2 3
10 7 8 9 12 13 9 6 7 5 4 1 0 1 1 1 2 2 3 3 2 1 2 2 0 1 1 3 3 2 3 3 3 3 3 3 3 3 3 3 3 3 3 4
9 8 9 10 11 10 5 3 5 5 4 2 2 2 2 1 2 0 3 4 4 2 1 2 1 0 1 2 3 3 3 3 3 3 3 3 3 3 4 4 3 3 3 3
9 10 12 13 12 7 3 3 4 6 1 3 2 3 3 3 2 1 2 2 3 3 2 2 1 0 1 2 3 3 2 3 3 2 3 3 3 3 4 3 3 3 3 3
10 9 10 10 11 6 5 3 2 3 5 5 4 4 4 3 3 2 2 2 2 2 2 1 1 0 1 2 3 3 3 3 2 2 3 3 3 4 3 3 3 3 3 4
9 5 5 5 3 2 4 4 4 4 4 5 5 4 3 3 3 3 3 3 3 2 1 1 1 0 1 2 2 3 2 2 2 2 2 2 2 3 3 3 3 3 3 4
4 3 4 4 2 1 1 2 3 4 4 5 5 4 5 4 3 3 3 3 3 4 2 2 2 2 2 1 1 2 2 2 2 2 1 2 2 2 1 2 3 2 2 2
6 5 5 5 4 5 4 4 4 4 5 5 5 5 4 3 3 2 3 3 2 3 4 2 2 1 1 1 1 1 1 2 2 2 2 2 2 2 1 1 2 1 2 1
6 5 5 4 4 5 5 5 6 5 5 5 5 5 5 4 3 3 2 2 3 3 4 3 2 1 2 2 1 1 0 1 2 2 2 2 2 1 1 1 2 5 3 4
Wind_Direction
240 243 250 261 249 268 280 279 276 241 204 194 169 168 170 170 167 159 161 160 157 156 154 151 151 149 146 139 138 139 143 139 140 134 146 154 149 155 142 138 126 120 143 160
247 240 253 261 260 260 271 268 262 255 245 211 168 173 176 173 175 162 166 161 160 158 150 149 156 158 153 149 149 146 155 156 160 153 167 175 173 167 149 115 113 133 160 174
243 246 253 255 258 272 274 273 281 280 289 283 199 230 211 173 176 167 166 164 160 158 157 157 167 164 160 157 158 162 159 156 167 174 179 165 151 164 115 131 143 160 169 167
246 251 256 257 251 259 265 276 283 283 275 266 239 230 194 186 192 177 168 164 162 158 160 163 168 168 167 164 163 155 152 154 163 177 193 190 175 172 174 145 133 151 206 198
247 242 247 251 256 263 276 286 283 285 281 275 247 247 196 183 188 182 171 168 163 162 166 166 165 166 168 167 163 157 150 155 162 184 201 212 207 190 153 128 138 179 191 195
255 253 250 255 261 259 267 270 271 265 261 267 257 245 196 181 183 169 161 159 158 159 163 159 158 159 164 165 163 155 148 155 167 183 194 186 228 240 127 166 177 208 193 183
242 243 237 241 257 248 249 261 270 267 243 252 257 256 180 163 175 165 152 153 154 157 158 155 157 160 163 164 161 154 153 163 173 181 190 181 208 217 202 225 225 227 220 186
242 235 224 223 240 258 256 259 261 274 277 273 232 209 98 147 152 153 147 154 161 164 159 157 158 157 160 162 159 155 156 166 173 178 186 183 191 217 220 221 252 246 262 196
260 259 238 222 231 243 251 269 275 274 278 283 244 142 164 183 163 146 139 149 161 157 147 153 155 159 161 163 159 159 156 165 175 181 178 182 194 226 240 211 235 265 264 237
266 274 253 231 233 233 247 265 281 279 286 289 285 187 173 165 144 125 127 129 137 147 147 156 159 161 162 163 157 153 152 163 169 174 187 187 191 200 224 261 238 291 333 340
253 260 262 248 235 238 235 246 262 280 286 281 283 302 135 151 142 139 134 123 124 154 147 146 146 151 157 159 156 157 155 160 171 180 187 184 175 184 196 216 245 245 278 280
246 262 266 258 250 254 250 249 252 262 266 268 269 268 126 126 135 123 126 132 147 145 135 136 144 150 154 154 153 152 159 166 173 175 172 171 173 183 198 205 219 224 233 245
291 263 260 254 244 244 247 247 255 264 263 259 261 218 137 100 84 108 115 113 110 122 125 133 139 140 145 144 145 151 161 171 174 171 172 173 184 190 203 208 215 223 235 234
276 257 264 267 274 266 259 257 256 263 267 266 244 206 174 134 110 112 101 92 109 113 116 127 132 130 137 136 132 140 154 159 165 163 170 173 185 190 197 205 216 212 219 214
252 257 263 274 278 273 266 270 265 256 261 270 257 214 194 147 101 81 88 96 85 94 115 117 126 130 140 136 138 143 154 157 160 166 173 176 182 178 188 204 212 207 215 226
242 269 278 271 271 273 271 266 263 259 258 262 257 236 150 121 90 85 87 110 111 92 102 110 121 131 139 143 150 155 160 157 158 176 181 170 176 177 193 216 208 209 216 229
247 254 268 271 272 270 261 257 254 251 243 247 244 212 165 128 104 97 93 114 109 111 107 87 66 126 147 151 156 163 162 164 171 188 184 169 176 184 201 222 215 232 234 233
247 255 262 265 267 257 257 269 261 259 243 246 240 190 180 124 128 108 82 66 85 88 75 89 67 194 167 158 155 161 164 166 180 191 197 186 193 203 207 217 225 232 236 238
251 244 254 257 254 256 252 260 266 258 252 296 261 112 89 89 125 116 47 36 34 86 95 91 89 241 171 151 148 157 179 182 197 201 203 207 204 211 217 222 236 243 242 240
238 230 243 253 257 261 261 295 291 261 238 23 41 66 68 40 266 186 41 28 359 348 77 71 63 50 114 135 155 177 203 203 215 210 215 220 213 214 220 221 231 232 237 240
218 226 235 248 255 258 305 321 284 256 333 32 38 52 46 23 337 29 23 23 353 1 50 62 55 62 128 149 166 181 205 222 234 227 217 217 216 224 223 217 220 224 233 239
238 240 236 245 251 251 1 351 0 35 28 25 28 32 39 27 13 38 7 352 340 355 41 7 4 60 136 168 180 188 204 220 227 222 222 218 215 229 225 215 227 225 228 233
237 258 267 258 245 105 46 54 47 29 17 360 3 17 12 6 358 8 359 348 352 354 8 337 336 348 152 182 195 202 193 181 205 215 216 217 211 222 202 212 228 224 227 238
242 271 277 278 240 288 337 42 31 8 352 344 344 355 355 352 347 356 350 345 350 346 342 349 353 24 25 41 195 197 168 169 185 191 208 210 211 220 202 224 237 245 259 269
285 276 264 268 278 295 319 339 345 337 332 329 330 329 326 325 314 325 329 339 358 355 345 355 5 20 353 356 42 39 138 157 174 187 199 207 221 214 168 101 29 25 33 22
276 288 268 275 302 292 295 310 312 314 318 316 313 312 312 316 317 330 339 348 353 358 347 348 1 2 360 350 351 34 91 169 172 197 210 218 215 195 193 169 94 51 59 59
Height
1478 1480 1482 1479 1475 1474 1473 1476 1478 1473 1466 1470 1476 1478 1478 1480 1483 1487 1492 1495 1500 1504 1508 1511 1514 1516 1517 1519 1520 1521 1522 1524 1524 1526 1527 1528 1529 1529 1530 1531 1532 1532 1532 1532
1478 1480 1475 1472 1471 1472 1472 1476 1476 1470 1465 1469 1475 1478 1476 1479 1481 1485 1489 1493 1497 1502 1506 1510 1513 1515 1517 1518 1519 1520 1522 1523 1524 1526 1527 1528 1529 1529 1530 1531 1531 1532 1532 1533
1479 1475 1470 1470 1472 1475 1474 1475 1474 1474 1469 1468 1476 1487 1481 1477 1480 1483 1486 1490 1494 1499 1503 1507 1511 1514 1516 1517 1518 1520 1521 1523 1524 1526 1527 1528 1529 1529 1530 1530 1531 1531 1532 1532
1473 1470 1470 1471 1472 1473 1478 1466 1467 1471 1478 1482 1479 1500 1487 1478 1479 1480 1483 1487 1491 1495 1501 1505 1508 1512 1514 1516 1517 1519 1520 1522 1523 1525 1526 1527 1528 1529 1529 1530 1530 1531 1531 1532
1471 1467 1468 1471 1469 1467 1469 1464 1466 1471 1478 1483 1477 1489 1489 1476 1480 1477 1479 1483 1488 1492 1497 1502 1506 1509 1512 1515 1517 1518 1519 1521 1522 1524 1525 1526 1527 1528 1529 1529 1530 1530 1531 1531
1465 1462 1463 1463 1462 1463 1463 1466 1469 1472 1480 1496 1480 1486 1489 1477 1476 1474 1476 1481 1485 1490 1495 1499 1503 1507 1511 1514 1516 1517 1518 1520 1521 1523 1524 1525 1526 1527 1528 1528 1528 1529 1529 1529
1469 1462 1459 1461 1465 1463 1464 1476 1493 1499 1500 1496 1472 1481 1484 1469 1468 1470 1474 1479 1484 1489 1492 1497 1501 1505 1509 1512 1514 1515 1517 1518 1520 1521 1522 1524 1525 1526 1526 1527 1527 1528 1528 1528
1475 1472 1458 1458 1464 1468 1466 1472 1495 1508 1501 1488 1476 1487 1480 1466 1467 1469 1473 1478 1482 1486 1490 1495 1499 1503 1507 1510 1512 1514 1515 1517 1518 1519 1521 1522 1523 1524 1525 1526 1526 1527 1527 1527
1472 1471 1454 1454 1457 1461 1468 1471 1466 1478 1482 1491 1485 1482 1475 1467 1468 1468 1472 1476 1480 1484 1489 1493 1498 1501 1505 1508 1510 1512 1514 1515 1517 1518 1519 1520 1522 1523 1524 1524 1525 1525 1525 1525
1464 1474 1460 1454 1456 1457 1460 1463 1470 1480 1496 1504 1493 1490 1487 1475 1471 1470 1473 1477 1481 1484 1488 1492 1496 1499 1503 1506 1508 1511 1512 1514 1515 1517 1518 1519 1520 1521 1522 1522 1523 1523 1523 1523
1461 1472 1467 1459 1462 1463 1462 1466 1470 1475 1481 1500 1508 1497 1469 1471 1470 1472 1474 1478 1481 1486 1487 1491 1495 1499 1502 1505 1507 1509 1511 1512 1514 1515 1516 1518 1518 1519 1520 1520 1520 1520 1520 1521
1460 1467 1473 1464 1453 1452 1456 1460 1466 1482 1488 1484 1494 1494 1464 1467 1470 1472 1475 1479 1482 1485 1488 1490 1494 1497 1501 1503 1505 1507 1509 1511 1512 1513 1514 1515 1516 1517 1517 1517 1518 1518 1517 1517
1464 1471 1483 1478 1468 1459 1459 1457 1458 1463 1472 1481 1491 1491 1465 1469 1472 1475 1477 1479 1483 1485 1488 1491 1494 1497 1500 1502 1504 1506 1508 1510 1511 1512 1513 1513 1514 1515 1515 1515 1515 1515 1514 1514
1468 1470 1477 1485 1477 1468 1467 1460 1457 1463 1474 1480 1481 1482 1471 1470 1474 1476 1478 1480 1483 1486 1488 1491 1493 1496 1499 1501 1503 1504 1506 1508 1509 1510 1511 1511 1512 1512 1513 1513 1513 1513 1512 1512
1466 1471 1469 1468 1463 1462 1463 1462 1459 1462 1465 1474 1473 1474 1472 1473 1475 1478 1479 1482 1484 1487 1489 1491 1493 1495 1497 1500 1501 1503 1504 1506 1507 1508 1509 1509 1510 1510 1511 1511 1511 1511 1511 1511
1466 1471 1472 1473 1466 1464 1464 1459 1458 1459 1461 1465 1467 1471 1469 1472 1476 1479 1482 1483 1485 1487 1489 1492 1493 1495 1496 1498 1499 1501 1502 1504 1505 1506 1506 1507 1508 1508 1509 1509 1509 1509 1509 1509
1468 1473 1479 1481 1471 1469 1471 1459 1457 1458 1458 1462 1469 1470 1469 1474 1477 1480 1482 1484 1485 1487 1490 1492 1493 1494 1495 1496 1497 1499 1500 1502 1503 1503 1504 1505 1505 1506 1506 1507 1507 1506 1506 1506
1470 1475 1478 1479 1481 1491 1465 1450 1451 1455 1456 1458 1461 1465 1468 1473 1477 1480 1483 1483 1485 1487 1489 1491 1492 1493 1494 1495 1496 1497 1499 1499 1500 1501 1502 1502 1503 1503 1504 1504 1504 1504 1504 1503
1465 1472 1479 1481 1483 1475 1461 1455 1454 1458 1462 1460 1463 1466 1470 1474 1476 1480 1482 1483 1485 1486 1488 1489 1490 1491 1492 1493 1494 1495 1496 1497 1498 1498 1499 1500 1500 1500 1501 1501 1501 1501 1501 1500
1465 1468 1478 1478 1485 1484 1467 1456 1455 1459 1468 1464 1465 1469 1472 1474 1478 1481 1483 1483 1485 1485 1486 1487 1488 1489 1490 1490 1491 1492 1493 1494 1494 1495 1496 1497 1497 1497 1497 1498 1498 1498 1498 1498
1471 1474 1476 1478 1481 1473 1463 1459 1460 1473 1475 1468 1469 1472 1474 1478 1480 1483 1483 1483 1483 1483 1484 1485 1486 1487 1488 1488 1489 1490 1490 1491 1491 1492 1493 1493 1494 1494 1494 1495 1495 1495 1495 1495
1470 1473 1474 1475 1482 1482 1466 1464 1470 1474 1471 1471 1473 1475 1477 1479 1480 1482 1482 1482 1482 1483 1483 1484 1485 1485 1485 1486 1486 1486 1487 1487 1488 1489 1490 1490 1491 1491 1492 1492 1492 1492 1492 1492
1464 1467 1468 1471 1475 1472 1471 1471 1473 1473 1474 1475 1475 1477 1478 1479 1480 1481 1482 1483 1483 1482 1483 1483 1484 1483 1483 1484 1484 1484 1484 1485 1485 1486 1487 1487 1488 1488 1489 1489 1489 1489 1489 1489
1463 1465 1467 1470 1469 1471 1471 1472 1474 1476 1477 1477 1477 1478 1478 1479 1480 1480 1481 1481 1482 1483 1482 1482 1482 1481 1481 1481 1481 1481 1481 1482 1482 1483 1484 1484 1485 1485 1486 1486 1487 1487 1487 1487
1467 1466 1468 1471 1472 1472 1472 1474 1476 1477 1477 1477 1478 1478 1478 1479 1479 1479 1480 1480 1481 1481 1482 1481 1481 1480 1480 1480 1479 1479 1480 1480 1480 1481 1481 1482 1483 1483 1482 1483 1484 1484 1484 1485
1468 1470 1472 1474 1475 1475 1475 1475 1476 1476 1477 1477 1477 1478 1478 1478 1478 1479 1479 1479 1480 1479 1479 1479 1478 1478 1478 1478 1477 1477 1477 1477 1478 1478 1479 1480 1481 1480 1481 1481 1481 1481 1481 1481